SIA242 YSSY-WSSS

Flight info

Callsign SIA242
Flight time N/A
Altitude 36000
Route KADOM A576 PKS G222 VAGPO/N0495F380 G222 ONALA/N0485F400 G222 SAPDA A585 PLB G579 SJ
Aircraft A359/H-SDE2E3GHIJ1J3J4J5LM1ORWXY/LB1D1

Departure

Time 2026-04-30 11:27
Airport Sydney Kingsford Smith International Airport (YSSY)

Arrival

Time N/A
Airport Singapore Changi Airport (WSSS)
Time Latitude Longitude Altitude Speed Heading
2026-04-30 10:44 -33.94020 151.16539 36 ft 0 kts 345°
2026-04-30 11:14 -33.94026 151.16541 36 ft 2 kts 345°
2026-04-30 11:15 -33.94042 151.16546 35 ft 2 kts 346°
2026-04-30 11:15 -33.94058 151.16550 35 ft 2 kts 348°
2026-04-30 11:15 -33.94074 151.16554 35 ft 2 kts 351°
2026-04-30 11:15 -33.94090 151.16556 35 ft 2 kts 355°
2026-04-30 11:16 -33.94107 151.16557 34 ft 2 kts
2026-04-30 11:16 -33.94123 151.16552 35 ft 2 kts 34°
2026-04-30 11:16 -33.94133 151.16539 34 ft 1 kts 71°
2026-04-30 11:16 -33.94134 151.16535 33 ft 0 kts 73°
2026-04-30 11:19 -33.94133 151.16537 34 ft 0 kts 73°
2026-04-30 11:19 -33.94129 151.16554 34 ft 5 kts 73°
2026-04-30 11:20 -33.94115 151.16610 34 ft 10 kts 73°
2026-04-30 11:20 -33.94092 151.16704 36 ft 13 kts 74°
2026-04-30 11:20 -33.94067 151.16813 36 ft 14 kts 74°
2026-04-30 11:20 -33.94040 151.16930 36 ft 15 kts 74°
2026-04-30 11:21 -33.94010 151.17055 36 ft 16 kts 74°
2026-04-30 11:21 -33.93981 151.17178 35 ft 8 kts 73°
2026-04-30 11:21 -33.93987 151.17222 35 ft 5 kts 131°
2026-04-30 11:21 -33.94038 151.17243 35 ft 11 kts 167°
2026-04-30 11:22 -33.94140 151.17269 34 ft 19 kts 167°
2026-04-30 11:22 -33.94283 151.17306 36 ft 22 kts 168°
2026-04-30 11:22 -33.94430 151.17344 37 ft 22 kts 168°
2026-04-30 11:22 -33.94593 151.17386 37 ft 26 kts 168°
2026-04-30 11:23 -33.94779 151.17435 36 ft 28 kts 168°
2026-04-30 11:23 -33.94970 151.17483 36 ft 28 kts 168°
2026-04-30 11:23 -33.95357 151.17583 36 ft 29 kts 167°
2026-04-30 11:24 -33.95551 151.17635 36 ft 29 kts 168°
2026-04-30 11:24 -33.95744 151.17685 36 ft 28 kts 168°
2026-04-30 11:24 -33.95936 151.17735 36 ft 29 kts 168°
2026-04-30 11:25 -33.96327 151.17835 36 ft 29 kts 168°
2026-04-30 11:25 -33.96430 151.17903 36 ft 12 kts 108°
2026-04-30 11:25 -33.96432 151.17928 36 ft 4 kts 91°
2026-04-30 11:26 -33.96400 151.18044 36 ft 3 kts 15°
2026-04-30 11:26 -33.96350 151.18043 36 ft 15 kts 351°
2026-04-30 11:26 -33.96044 151.17968 33 ft 77 kts 348°
2026-04-30 11:27 -33.95331 151.17786 36 ft 131 kts 348°
2026-04-30 11:27 -33.94279 151.17507 103 ft 171 kts 347°
2026-04-30 11:27 -33.93172 151.17177 791 ft 163 kts 346°
2026-04-30 11:27 -33.92198 151.16455 1247 ft 174 kts 312°
2026-04-30 11:28 -33.90933 151.13589 1664 ft 214 kts 300°
2026-04-30 11:28 -33.90115 151.12002 1874 ft 233 kts 304°
2026-04-30 11:28 -33.89167 151.10325 2144 ft 251 kts 306°
2026-04-30 11:29 -33.88174 151.08522 2510 ft 264 kts 305°
2026-04-30 11:29 -33.87158 151.06691 3085 ft 267 kts 306°
2026-04-30 11:29 -33.85026 151.03042 4426 ft 267 kts 305°
2026-04-30 11:30 -33.83801 150.98788 5629 ft 274 kts 283°
2026-04-30 11:30 -33.83415 150.96530 6183 ft 277 kts 281°
2026-04-30 11:30 -33.83061 150.94241 6772 ft 280 kts 281°
2026-04-30 11:31 -33.82648 150.91934 7297 ft 284 kts 284°
2026-04-30 11:31 -33.82181 150.89656 7876 ft 285 kts 285°
2026-04-30 11:31 -33.81693 150.87329 8437 ft 288 kts 284°
2026-04-30 11:31 -33.81271 150.84974 9034 ft 289 kts 283°
2026-04-30 11:32 -33.80854 150.82597 9607 ft 291 kts 283°
2026-04-30 11:32 -33.80426 150.80203 10201 ft 294 kts 283°
2026-04-30 11:32 -33.79988 150.77792 10650 ft 299 kts 283°
2026-04-30 11:33 -33.79051 150.72689 11131 ft 326 kts 283°
2026-04-30 11:33 -33.78551 150.69979 11334 ft 339 kts 283°
2026-04-30 11:33 -33.78031 150.67163 11557 ft 351 kts 283°
2026-04-30 11:33 -33.77492 150.64257 11768 ft 362 kts 283°
2026-04-30 11:34 -33.76937 150.61264 12024 ft 371 kts 283°
2026-04-30 11:34 -33.76372 150.58222 12420 ft 374 kts 283°
2026-04-30 11:34 -33.75809 150.55200 12848 ft 377 kts 283°
2026-04-30 11:34 -33.75234 150.52113 13262 ft 380 kts 283°
2026-04-30 11:35 -33.74655 150.49008 13689 ft 382 kts 283°
2026-04-30 11:35 -33.74071 150.45883 14104 ft 385 kts 283°
2026-04-30 11:35 -33.73481 150.42734 14477 ft 387 kts 283°
2026-04-30 11:35 -33.72886 150.39563 14841 ft 390 kts 283°
2026-04-30 11:36 -33.72288 150.36374 15207 ft 393 kts 283°
2026-04-30 11:36 -33.71684 150.33169 15582 ft 395 kts 283°
2026-04-30 11:36 -33.71043 150.29954 15955 ft 397 kts 285°
2026-04-30 11:36 -33.70288 150.26798 16319 ft 399 kts 287°
2026-04-30 11:37 -33.69446 150.23616 16711 ft 401 kts 288°
2026-04-30 11:37 -33.68566 150.20430 17085 ft 403 kts 288°
2026-04-30 11:37 -33.67669 150.17226 17444 ft 406 kts 288°
2026-04-30 11:37 -33.66769 150.14005 17812 ft 408 kts 288°
2026-04-30 11:38 -33.65870 150.10764 18167 ft 410 kts 288°
2026-04-30 11:38 -33.64972 150.07506 18521 ft 413 kts 288°
2026-04-30 11:38 -33.64073 150.04226 18872 ft 415 kts 288°
2026-04-30 11:38 -33.63170 150.00928 19178 ft 417 kts 288°
2026-04-30 11:39 -33.62264 149.97614 19470 ft 419 kts 288°
2026-04-30 11:39 -33.61366 149.94337 19780 ft 420 kts 288°
2026-04-30 11:39 -33.60450 149.90999 20092 ft 422 kts 288°
2026-04-30 11:39 -33.59530 149.87649 20405 ft 424 kts 288°
2026-04-30 11:40 -33.58604 149.84283 20697 ft 426 kts 288°
2026-04-30 11:40 -33.57674 149.80905 20987 ft 427 kts 288°
2026-04-30 11:40 -33.56739 149.77518 21283 ft 429 kts 288°
2026-04-30 11:40 -33.55801 149.74119 21577 ft 431 kts 288°
2026-04-30 11:41 -33.54856 149.70701 21863 ft 432 kts 288°
2026-04-30 11:41 -33.53908 149.67278 22155 ft 434 kts 288°
2026-04-30 11:41 -33.52955 149.63839 22418 ft 436 kts 288°
2026-04-30 11:41 -33.52009 149.60431 22698 ft 437 kts 288°
2026-04-30 11:42 -33.51047 149.56970 22979 ft 439 kts 288°
2026-04-30 11:42 -33.50081 149.53498 23283 ft 440 kts 288°
2026-04-30 11:42 -33.49112 149.50016 23536 ft 442 kts 288°
2026-04-30 11:42 -33.48137 149.46520 23797 ft 443 kts 288°
2026-04-30 11:43 -33.47156 149.43008 24074 ft 445 kts 288°
2026-04-30 11:43 -33.46173 149.39491 24302 ft 446 kts 288°
2026-04-30 11:43 -33.45186 149.35964 24510 ft 448 kts 288°
2026-04-30 11:43 -33.44194 149.32424 24721 ft 449 kts 288°
2026-04-30 11:44 -33.43197 149.28873 24948 ft 450 kts 288°
2026-04-30 11:44 -33.42198 149.25316 25181 ft 451 kts 288°
2026-04-30 11:44 -33.41195 149.21752 25392 ft 453 kts 288°
2026-04-30 11:44 -33.40200 149.18221 25604 ft 454 kts 288°
2026-04-30 11:45 -33.39189 149.14635 25827 ft 456 kts 288°
2026-04-30 11:45 -33.38174 149.11039 26051 ft 457 kts 288°
2026-04-30 11:45 -33.37153 149.07430 26287 ft 458 kts 288°
2026-04-30 11:45 -33.36130 149.03815 26492 ft 460 kts 288°
2026-04-30 11:46 -33.35101 149.00185 26720 ft 461 kts 288°
2026-04-30 11:46 -33.34069 148.96546 26966 ft 463 kts 288°
2026-04-30 11:46 -33.33032 148.92899 27195 ft 464 kts 288°
2026-04-30 11:46 -33.31991 148.89240 27416 ft 465 kts 289°
2026-04-30 11:47 -33.30961 148.85624 27655 ft 467 kts 289°
2026-04-30 11:47 -33.29911 148.81943 27884 ft 468 kts 289°
2026-04-30 11:47 -33.28857 148.78251 28115 ft 470 kts 289°
2026-04-30 11:47 -33.27800 148.74556 28353 ft 471 kts 289°
2026-04-30 11:48 -33.26736 148.70842 28573 ft 473 kts 289°
2026-04-30 11:48 -33.25668 148.67116 28811 ft 474 kts 289°
2026-04-30 11:48 -33.24596 148.63382 29048 ft 476 kts 289°
2026-04-30 11:48 -33.23521 148.59641 29288 ft 477 kts 289°
2026-04-30 11:49 -33.22454 148.55933 29516 ft 479 kts 289°
2026-04-30 11:49 -33.21368 148.52167 29767 ft 481 kts 289°
2026-04-30 11:49 -33.20278 148.48389 29992 ft 482 kts 289°
2026-04-30 11:49 -33.19184 148.44602 30240 ft 484 kts 289°
2026-04-30 11:50 -33.18083 148.40798 30469 ft 485 kts 289°
2026-04-30 11:50 -33.16980 148.36989 30679 ft 487 kts 289°
2026-04-30 11:50 -33.15872 148.33170 30908 ft 487 kts 289°
2026-04-30 11:50 -33.14762 148.29347 31154 ft 488 kts 289°
2026-04-30 11:51 -33.13649 148.25521 31384 ft 488 kts 289°
2026-04-30 11:51 -33.12522 148.21697 31615 ft 489 kts 290°
2026-04-30 11:51 -33.11254 148.17931 31848 ft 490 kts 293°
2026-04-30 11:51 -33.09878 148.14209 32126 ft 489 kts 294°
2026-04-30 11:52 -33.08494 148.10579 32410 ft 488 kts 294°
2026-04-30 11:52 -33.07091 148.06899 32693 ft 487 kts 294°
2026-04-30 11:52 -33.05705 148.03221 32978 ft 486 kts 294°
2026-04-30 11:52 -33.04336 147.99541 33288 ft 485 kts 293°
2026-04-30 11:53 -33.02984 147.95869 33604 ft 483 kts 293°
2026-04-30 11:53 -33.01644 147.92210 33925 ft 481 kts 293°
2026-04-30 11:53 -33.00309 147.88559 34234 ft 480 kts 293°
2026-04-30 11:53 -32.98977 147.84916 34534 ft 478 kts 293°
2026-04-30 11:54 -32.97651 147.81293 34803 ft 477 kts 293°
2026-04-30 11:54 -32.96327 147.77682 35080 ft 475 kts 293°
2026-04-30 11:54 -32.95005 147.74084 35352 ft 473 kts 293°
2026-04-30 11:54 -32.93705 147.70549 35587 ft 472 kts 293°
2026-04-30 11:55 -32.92388 147.66973 35857 ft 471 kts 293°
2026-04-30 11:55 -32.91075 147.63412 36136 ft 469 kts 293°
2026-04-30 11:55 -32.88529 147.56517 36361 ft 473 kts 293°
2026-04-30 11:55 -32.83211 147.42162 36359 ft 474 kts 293°
2026-04-30 11:56 -32.72540 147.13542 36355 ft 474 kts 293°
2026-04-30 11:56 -32.61849 146.85109 36346 ft 474 kts 294°
2026-04-30 11:57 -32.51019 146.56543 36347 ft 475 kts 294°
2026-04-30 11:57 -32.40128 146.28056 36343 ft 474 kts 294°
2026-04-30 11:58 -32.29181 145.99662 36334 ft 474 kts 295°
2026-04-30 11:58 -32.18146 145.71274 36326 ft 475 kts 295°
2026-04-30 11:59 -32.07033 145.42914 36317 ft 477 kts 295°
2026-04-30 11:59 -31.95799 145.14511 36312 ft 477 kts 295°
2026-04-30 12:00 -31.84588 144.86416 36307 ft 477 kts 295°
2026-04-30 12:00 -31.73270 144.58277 36300 ft 475 kts 295°
2026-04-30 12:01 -31.61931 144.30304 36293 ft 474 kts 295°
2026-04-30 12:01 -31.52447 144.07078 36291 ft 473 kts 295°
2026-04-30 12:02 -31.49595 144.00124 36282 ft 473 kts 295°
2026-04-30 12:02 -31.46743 143.93180 36285 ft 473 kts 294°
2026-04-30 12:03 -31.42460 143.82782 36279 ft 472 kts 294°
2026-04-30 12:04 -31.39608 143.75871 36279 ft 471 kts 294°
2026-04-30 12:04 -31.36771 143.69012 36278 ft 470 kts 294°
2026-04-30 12:05 -31.33917 143.62126 36279 ft 470 kts 294°
2026-04-30 12:05 -31.31066 143.55256 36279 ft 469 kts 294°
2026-04-30 12:06 -31.28210 143.48391 36277 ft 469 kts 294°
2026-04-30 12:06 -31.25354 143.41537 36275 ft 468 kts 294°
2026-04-30 12:07 -31.14870 143.16486 36273 ft 467 kts 294°
2026-04-30 12:07 -31.03394 142.89258 36281 ft 467 kts 294°
2026-04-30 12:07 -30.98882 142.78610 36793 ft 462 kts 294°
2026-04-30 12:08 -30.97461 142.75263 37072 ft 461 kts 294°
2026-04-30 12:08 -30.96039 142.71917 37290 ft 460 kts 294°
2026-04-30 12:08 -30.94619 142.68577 37494 ft 460 kts 294°
2026-04-30 12:08 -30.93166 142.65164 37690 ft 459 kts 294°
2026-04-30 12:09 -30.90325 142.58498 38071 ft 459 kts 294°
2026-04-30 12:09 -30.87476 142.51827 38266 ft 462 kts 294°
2026-04-30 12:09 -30.84604 142.45111 38264 ft 464 kts 294°
2026-04-30 12:10 -30.79813 142.33940 38258 ft 464 kts 294°
2026-04-30 12:10 -30.73063 142.18258 38258 ft 464 kts 294°
2026-04-30 12:11 -30.67316 142.04957 38268 ft 464 kts 294°
2026-04-30 12:11 -30.62460 141.93756 38244 ft 463 kts 294°
2026-04-30 12:12 -30.55711 141.78242 38250 ft 463 kts 294°
2026-04-30 12:12 -30.48473 141.61674 38250 ft 462 kts 294°
2026-04-30 12:13 -30.36907 141.35349 38238 ft 461 kts 294°
2026-04-30 12:13 -30.25235 141.08969 38228 ft 460 kts 294°
2026-04-30 12:14 -30.13531 140.82706 38225 ft 459 kts 294°
2026-04-30 12:14 -30.01803 140.56557 38221 ft 458 kts 294°
2026-04-30 12:15 -29.90045 140.30521 38209 ft 458 kts 294°
2026-04-30 12:15 -29.78232 140.04543 38206 ft 457 kts 295°
2026-04-30 12:16 -29.66382 139.78665 38209 ft 456 kts 295°
2026-04-30 12:16 -29.54601 139.53088 38197 ft 455 kts 295°
2026-04-30 12:17 -29.36747 139.14659 38193 ft 453 kts 295°
2026-04-30 12:17 -29.24832 138.89218 38182 ft 452 kts 295°
2026-04-30 12:18 -29.12900 138.63901 38181 ft 451 kts 295°
2026-04-30 12:18 -29.00958 138.38721 38169 ft 450 kts 295°
2026-04-30 12:19 -28.88998 138.13661 38168 ft 449 kts 295°
2026-04-30 12:19 -28.77001 137.88676 38163 ft 449 kts 295°
2026-04-30 12:20 -28.64967 137.63768 38158 ft 448 kts 295°
2026-04-30 12:20 -28.52968 137.39084 38166 ft 448 kts 295°
2026-04-30 12:21 -28.40854 137.14311 38156 ft 447 kts 295°
2026-04-30 12:21 -28.28742 136.89690 38149 ft 446 kts 295°
2026-04-30 12:22 -28.16592 136.65169 38152 ft 445 kts 295°
2026-04-30 12:22 -28.04399 136.40758 38149 ft 445 kts 295°
2026-04-30 12:23 -27.92165 136.16405 38144 ft 444 kts 295°
2026-04-30 12:23 -27.79932 135.92192 38135 ft 443 kts 295°
2026-04-30 12:24 -27.67737 135.68189 38138 ft 443 kts 295°
2026-04-30 12:24 -27.55439 135.44122 38127 ft 444 kts 295°
2026-04-30 12:25 -27.43157 135.19949 38129 ft 445 kts 295°
2026-04-30 12:25 -27.30848 134.95864 38128 ft 444 kts 295°
2026-04-30 12:26 -27.18554 134.71939 38127 ft 440 kts 295°
2026-04-30 12:26 -27.06269 134.48160 38125 ft 439 kts 295°
2026-04-30 12:27 -26.93959 134.24464 38125 ft 440 kts 295°
2026-04-30 12:27 -26.81617 134.00835 38125 ft 439 kts 295°
2026-04-30 12:28 -26.69275 133.77331 38125 ft 437 kts 295°
2026-04-30 12:28 -26.56944 133.53971 38121 ft 435 kts 295°
2026-04-30 12:29 -26.44618 133.30744 38134 ft 434 kts 294°
2026-04-30 12:29 -26.32365 133.07768 38127 ft 434 kts 294°
2026-04-30 12:30 -26.19994 132.84697 38124 ft 433 kts 295°
2026-04-30 12:30 -26.07627 132.61749 38127 ft 432 kts 295°
2026-04-30 12:31 -25.95230 132.38863 38127 ft 431 kts 295°
2026-04-30 12:31 -25.82802 132.16035 38125 ft 431 kts 295°
2026-04-30 12:32 -25.70382 131.93332 38118 ft 430 kts 295°
2026-04-30 12:32 -25.58002 131.70814 38113 ft 430 kts 295°
2026-04-30 12:33 -25.45498 131.48182 38105 ft 430 kts 295°
2026-04-30 12:33 -25.32971 131.25616 38103 ft 430 kts 295°
2026-04-30 12:34 -25.20420 131.03116 38089 ft 430 kts 295°
2026-04-30 12:34 -25.05538 130.82007 38098 ft 438 kts 303°
2026-04-30 12:35 -24.89917 130.61509 38095 ft 439 kts 303°
2026-04-30 12:35 -24.74173 130.40924 38092 ft 440 kts 303°
2026-04-30 12:36 -24.58367 130.20347 38089 ft 441 kts 303°
2026-04-30 12:36 -24.42498 129.99775 38084 ft 441 kts 303°
2026-04-30 12:37 -24.26580 129.79227 38084 ft 443 kts 303°
2026-04-30 12:37 -24.10568 129.58646 38085 ft 444 kts 303°
2026-04-30 12:38 -23.94472 129.38044 38083 ft 445 kts 304°
2026-04-30 12:38 -23.78411 129.17575 38077 ft 446 kts 304°
2026-04-30 12:39 -23.62195 128.96992 38070 ft 447 kts 304°
2026-04-30 12:39 -23.45944 128.76451 38072 ft 447 kts 304°
2026-04-30 12:40 -23.29653 128.55945 38071 ft 448 kts 304°
2026-04-30 12:40 -23.13332 128.35501 38067 ft 448 kts 304°
2026-04-30 12:41 -22.96954 128.15080 38068 ft 448 kts 305°
2026-04-30 12:41 -22.80534 127.94689 38058 ft 448 kts 305°
2026-04-30 12:42 -22.64179 127.74460 38067 ft 448 kts 305°
2026-04-30 12:42 -22.47699 127.54158 38054 ft 449 kts 305°
2026-04-30 12:43 -22.31156 127.33856 38059 ft 450 kts 305°
2026-04-30 12:43 -22.14593 127.13609 38051 ft 450 kts 305°
2026-04-30 12:44 -21.97993 126.93396 38051 ft 450 kts 306°
2026-04-30 12:44 -21.81345 126.73201 38052 ft 451 kts 306°
2026-04-30 12:45 -21.64653 126.53029 38046 ft 452 kts 306°
2026-04-30 12:45 -21.47978 126.32954 38050 ft 452 kts 306°
2026-04-30 12:46 -21.31186 126.12814 38040 ft 453 kts 306°
2026-04-30 12:46 -21.14329 125.92670 38040 ft 454 kts 306°
2026-04-30 12:47 -20.97446 125.72570 38031 ft 454 kts 307°
2026-04-30 12:47 -20.80534 125.52442 38032 ft 455 kts 307°
2026-04-30 12:48 -20.63596 125.32315 38032 ft 456 kts 307°
2026-04-30 12:48 -20.46581 125.12173 38024 ft 457 kts 307°
2026-04-30 12:49 -20.29616 124.92161 38019 ft 458 kts 307°
2026-04-30 12:49 -20.12452 124.71986 38013 ft 460 kts 308°
2026-04-30 12:50 -19.95188 124.51766 38008 ft 462 kts 308°
2026-04-30 12:50 -19.77854 124.31536 38005 ft 463 kts 308°
2026-04-30 12:51 -19.60411 124.11247 38006 ft 465 kts 308°
2026-04-30 12:51 -19.42926 123.90982 38000 ft 466 kts 309°
2026-04-30 12:52 -19.25497 123.70850 38003 ft 467 kts 309°
2026-04-30 12:52 -19.07939 123.50638 38000 ft 467 kts 309°
2026-04-30 12:53 -18.90305 123.30422 38004 ft 468 kts 309°
2026-04-30 12:53 -18.72470 123.10378 38001 ft 468 kts 309°
2026-04-30 12:54 -18.54641 122.90378 38004 ft 468 kts 309°
2026-04-30 12:54 -18.36779 122.70408 38003 ft 468 kts 309°
2026-04-30 12:55 -18.19000 122.50596 37997 ft 468 kts 309°
2026-04-30 12:55 -18.01085 122.30694 37997 ft 469 kts 309°
2026-04-30 12:56 -17.92912 122.20131 37996 ft 462 kts 297°
2026-04-30 12:56 -17.86801 122.08267 37992 ft 462 kts 295°
2026-04-30 12:56 -17.74639 121.84442 37999 ft 462 kts 295°
2026-04-30 12:57 -17.64506 121.64719 38001 ft 463 kts 295°
2026-04-30 12:57 -17.52261 121.40964 38002 ft 463 kts 295°
2026-04-30 12:58 -17.39967 121.17199 38002 ft 464 kts 296°
2026-04-30 12:58 -17.27629 120.93439 38005 ft 464 kts 296°
2026-04-30 12:59 -17.15245 120.69673 38009 ft 465 kts 296°
2026-04-30 12:59 -17.02888 120.46044 38011 ft 466 kts 296°
2026-04-30 13:00 -16.90395 120.22239 38009 ft 468 kts 296°
2026-04-30 13:00 -16.77848 119.98418 38017 ft 469 kts 297°
2026-04-30 13:01 -16.65218 119.74520 38016 ft 470 kts 297°
2026-04-30 13:01 -16.52572 119.50677 38012 ft 470 kts 297°
2026-04-30 13:02 -16.39870 119.26809 38014 ft 471 kts 297°
2026-04-30 13:02 -16.27116 119.02926 38013 ft 472 kts 297°
2026-04-30 13:03 -16.14327 118.79059 38012 ft 472 kts 297°
2026-04-30 13:03 -16.01594 118.55376 38011 ft 473 kts 297°
2026-04-30 13:04 -15.88721 118.31511 38010 ft 473 kts 297°
2026-04-30 13:04 -15.75825 118.07684 38001 ft 473 kts 297°
2026-04-30 13:05 -15.62880 117.83843 38011 ft 474 kts 297°
2026-04-30 13:06 -15.43386 117.48087 38010 ft 475 kts 297°
2026-04-30 13:06 -15.30325 117.24227 38006 ft 476 kts 297°
2026-04-30 13:07 -15.17310 117.00526 38322 ft 476 kts 297°
2026-04-30 13:07 -15.10781 116.88654 39212 ft 473 kts 297°
2026-04-30 13:07 -15.04296 116.76878 39897 ft 471 kts 297°
2026-04-30 13:07 -14.97784 116.65072 40002 ft 471 kts 297°
2026-04-30 13:08 -14.91271 116.53284 40000 ft 472 kts 297°
2026-04-30 13:08 -14.78204 116.29685 40004 ft 472 kts 297°
2026-04-30 13:09 -14.65197 116.06267 40002 ft 473 kts 297°
2026-04-30 13:09 -14.52069 115.82701 40001 ft 474 kts 297°
2026-04-30 13:10 -14.38890 115.59113 40000 ft 474 kts 297°
2026-04-30 13:10 -14.25645 115.35480 39993 ft 475 kts 297°
2026-04-30 13:11 -14.12393 115.11908 39995 ft 476 kts 298°
2026-04-30 13:11 -13.99106 114.88331 40004 ft 476 kts 298°
2026-04-30 13:12 -13.85771 114.64746 40002 ft 476 kts 298°
2026-04-30 13:12 -13.72398 114.41161 39996 ft 477 kts 298°
2026-04-30 13:13 -13.52320 114.05873 39995 ft 477 kts 298°
2026-04-30 13:14 -13.32260 113.70762 39989 ft 476 kts 298°
2026-04-30 13:14 -13.12098 113.35617 39992 ft 476 kts 298°
2026-04-30 13:15 -12.91906 113.00558 39987 ft 476 kts 299°
2026-04-30 13:16 -12.78416 112.77214 39986 ft 476 kts 299°
2026-04-30 13:16 -12.64925 112.53927 39991 ft 475 kts 299°
2026-04-30 13:17 -12.44634 112.19017 39988 ft 476 kts 299°
2026-04-30 13:18 -12.24266 111.84104 39982 ft 477 kts 299°
2026-04-30 13:18 -12.11060 111.61536 39982 ft 478 kts 300°
2026-04-30 13:19 -12.04228 111.49883 39984 ft 478 kts 300°
2026-04-30 13:19 -11.95917 111.39320 39982 ft 482 kts 318°
2026-04-30 13:20 -11.85428 111.30749 39983 ft 483 kts 320°
2026-04-30 13:20 -11.74895 111.22228 39982 ft 483 kts 320°
2026-04-30 13:21 -11.64465 111.13742 39978 ft 482 kts 320°
2026-04-30 13:22 -11.48738 111.00968 39980 ft 481 kts 320°
2026-04-30 13:22 -11.33048 110.88242 39980 ft 479 kts 320°
2026-04-30 13:23 -11.17470 110.75625 39974 ft 478 kts 320°
2026-04-30 13:24 -10.96630 110.58776 39973 ft 478 kts 321°
2026-04-30 13:25 -10.75773 110.41944 39976 ft 478 kts 321°
2026-04-30 13:26 -10.49661 110.20913 39968 ft 480 kts 321°
2026-04-30 13:28 -10.23514 109.99903 39969 ft 481 kts 321°
2026-04-30 13:28 -10.07728 109.87240 39967 ft 481 kts 321°
2026-04-30 13:29 -9.86707 109.70403 39968 ft 481 kts 321°
2026-04-30 13:31 -9.60505 109.49454 39967 ft 481 kts 322°
2026-04-30 13:32 -9.34194 109.28462 39967 ft 482 kts 322°
2026-04-30 13:33 -9.13071 109.11638 39966 ft 484 kts 322°
2026-04-30 13:34 -8.97186 108.99004 39964 ft 484 kts 322°
2026-04-30 13:35 -8.76079 108.82237 39961 ft 484 kts 322°
2026-04-30 13:36 -8.54866 108.65413 39963 ft 484 kts 323°
2026-04-30 13:36 -8.38959 108.52810 39958 ft 484 kts 323°
2026-04-30 13:37 -8.23020 108.40201 39959 ft 486 kts 323°
2026-04-30 13:38 -8.07018 108.27554 39960 ft 488 kts 323°
2026-04-30 13:39 -7.85479 108.10860 39966 ft 491 kts 323°
2026-04-30 13:40 -7.69220 107.98280 39980 ft 492 kts 323°
2026-04-30 13:40 -7.58338 107.89868 39990 ft 493 kts 323°
2026-04-30 13:41 -7.47437 107.81447 40008 ft 493 kts 323°
2026-04-30 13:41 -7.36548 107.73040 40021 ft 493 kts 323°
2026-04-30 13:42 -7.25646 107.64629 40029 ft 493 kts 323°
2026-04-30 13:42 -7.09313 107.52039 40027 ft 493 kts 323°
2026-04-30 13:43 -6.98404 107.43620 40022 ft 494 kts 323°
2026-04-30 13:43 -6.87495 107.35186 40013 ft 495 kts 323°
2026-04-30 13:44 -6.76632 107.26802 39996 ft 495 kts 323°
2026-04-30 13:44 -6.65692 107.18364 39982 ft 495 kts 323°
2026-04-30 13:45 -6.49287 107.05718 39968 ft 495 kts 323°
2026-04-30 13:46 -6.40169 106.98695 39962 ft 495 kts 323°
2026-04-30 13:46 -6.29634 106.89784 39965 ft 498 kts 309°
2026-04-30 13:46 -6.25498 106.81612 39970 ft 500 kts 286°
2026-04-30 13:47 -6.23801 106.74828 39963 ft 501 kts 283°
2026-04-30 13:47 -6.21213 106.63369 39967 ft 502 kts 283°
2026-04-30 13:47 -6.18904 106.56785 39965 ft 501 kts 299°
2026-04-30 13:48 -6.14704 106.51256 39962 ft 499 kts 319°
2026-04-30 13:48 -6.09036 106.47298 39960 ft 498 kts 330°
2026-04-30 13:48 -6.02994 106.43862 39955 ft 499 kts 332°